Location: Caltech
(34.1382°N, 118.1253°W)
Time: 11:23:37
(UTC-07:00)

COSMOS 2428 - Visible Passes

Search period start: 21 October 2014 00:00
Search period end: 31 October 2014 00:00
Orbit: 842 x 859 km, 71.0° (Epoch: 21 October)

Date Brightness Start Highest point End Pass type
(mag) Time Alt. Az. Time Alt. Az. Time Alt. Az.
21 Oct 4.1 04:10:38 34° NE 04:11:22 35° ENE 04:16:33 10° SE visible
21 Oct 3.6 05:52:49 20° WNW 05:55:25 27° WSW 06:00:08 10° SSW visible
21 Oct 3.4 18:54:45 10° SSW 19:00:20 59° WNW 19:05:59 10° NNE visible
22 Oct 4.4 04:00:57 28° E 04:00:57 28° E 04:04:16 10° SE visible
22 Oct 3.5 05:43:06 27° WSW 05:43:09 27° WSW 05:47:52 10° SSW visible
22 Oct 3.4 18:42:28 10° SSW 18:48:04 59° WNW 18:53:43 10° NNE visible
23 Oct 5.1 03:51:02 15° ESE 03:51:02 15° ESE 03:52:00 10° SE visible
23 Oct 4.1 05:33:10 21° SW 05:33:10 21° SW 05:35:35 10° SSW visible
23 Oct 3.4 18:30:12 10° SSW 18:35:47 59° WNW 18:41:27 10° NNE visible
24 Oct 4.8 05:23:01 11° SSW 05:23:01 11° SSW 05:23:19 10° SSW visible
